contact:dominique.lefevre@mio.osupytheas.fr, maurice.libes@osupytheas.fr, didier.mallarino@osupytheas.fr
Project:EMSO http://www.emso-fr.org/EMSO-France
Depth: 2436.0 m
Title:EMSO Ligure Ouest : Data MII capteur MICROCAT
DateTime_Computer,Latitude,Longitude,Temperature,Conductivity,Pressure,DateTime_Instrument
DateTime_Computer,Latitude,Longitude,degC,S m-1,dbar,DateTime_Instrument
2023-10-05T00:00:21Z,42.805,6.029,13.3073,4.60131,2470.8,2023-10-05T02:02:45Z
2023-10-05T00:03:24Z,42.805,6.029,13.3062,4.60122,2470.777,2023-10-05T02:05:48Z
2023-10-05T00:06:27Z,42.805,6.029,13.3065,4.60144,2470.763,2023-10-05T02:08:51Z
2023-10-05T00:09:30Z,42.805,6.029,13.3050,4.60142,2470.754,2023-10-05T02:11:54Z
2023-10-05T00:12:33Z,42.805,6.029,13.3086,4.60128,2470.763,2023-10-05T02:14:57Z
2023-10-05T00:15:37Z,42.805,6.029,13.3059,4.60125,2470.754,2023-10-05T02:18:00Z
2023-10-05T00:18:40Z,42.805,6.029,13.3096,4.60132,2470.763,2023-10-05T02:21:03Z
2023-10-05T00:21:43Z,42.805,6.029,13.3063,4.60152,2470.74,2023-10-05T02:24:06Z
2023-10-05T00:24:46Z,42.805,6.029,13.3055,4.60134,2470.777,2023-10-05T02:27:09Z
2023-10-05T00:27:49Z,42.805,6.029,13.3069,4.60121,2470.754,2023-10-05T02:30:12Z
2023-10-05T00:30:52Z,42.805,6.029,13.3070,4.60135,2470.74,2023-10-05T02:33:16Z
2023-10-05T00:33:55Z,42.805,6.029,13.3069,4.60119,2470.787,2023-10-05T02:36:19Z
2023-10-05T00:36:58Z,42.805,6.029,13.3056,4.60131,2470.763,2023-10-05T02:39:22Z
2023-10-05T00:40:01Z,42.805,6.029,13.3079,4.60129,2470.763,2023-10-05T02:42:25Z
2023-10-05T00:43:04Z,42.805,6.029,13.3060,4.60134,2470.754,2023-10-05T02:45:28Z
2023-10-05T00:46:07Z,42.805,6.029,13.3073,4.60127,2470.74,2023-10-05T02:48:31Z
2023-10-05T00:49:10Z,42.805,6.029,13.3060,4.60128,2470.74,2023-10-05T02:51:34Z
2023-10-05T00:52:13Z,42.805,6.029,13.3063,4.60127,2470.74,2023-10-05T02:54:37Z
2023-10-05T00:55:17Z,42.805,6.029,13.3063,4.60131,2470.754,2023-10-05T02:57:40Z
2023-10-05T00:58:20Z,42.805,6.029,13.3070,4.60126,2470.74,2023-10-05T03:00:43Z
2023-10-05T01:01:23Z,42.805,6.029,13.3073,4.60122,2470.754,2023-10-05T03:03:46Z
2023-10-05T01:04:26Z,42.805,6.029,13.3051,4.60144,2470.777,2023-10-05T03:06:49Z
2023-10-05T01:07:29Z,42.805,6.029,13.3069,4.60143,2470.74,2023-10-05T03:09:52Z
2023-10-05T01:10:32Z,42.805,6.029,13.3070,4.60119,2470.754,2023-10-05T03:12:56Z
2023-10-05T01:13:35Z,42.805,6.029,13.3073,4.60121,2470.707,2023-10-05T03:15:59Z
2023-10-05T01:16:38Z,42.805,6.029,13.3066,4.60127,2470.73,2023-10-05T03:19:02Z
2023-10-05T01:19:41Z,42.805,6.029,13.3076,4.60141,2470.754,2023-10-05T03:22:05Z
2023-10-05T01:22:44Z,42.805,6.029,13.3071,4.60150,2470.717,2023-10-05T03:25:08Z
2023-10-05T01:25:47Z,42.805,6.029,13.3080,4.60125,2470.717,2023-10-05T03:28:11Z
2023-10-05T01:28:50Z,42.805,6.029,13.3084,4.60128,2470.754,2023-10-05T03:31:14Z
2023-10-05T01:31:53Z,42.805,6.029,13.3076,4.60132,2470.754,2023-10-05T03:34:17Z
2023-10-05T01:34:57Z,42.805,6.029,13.3074,4.60140,2470.73,2023-10-05T03:37:20Z
2023-10-05T01:38:00Z,42.805,6.029,13.3057,4.60127,2470.73,2023-10-05T03:40:23Z
2023-10-05T01:41:03Z,42.805,6.029,13.3063,4.60135,2470.74,2023-10-05T03:43:26Z
2023-10-05T01:44:06Z,42.805,6.029,13.3056,4.60117,2470.73,2023-10-05T03:46:29Z
2023-10-05T01:47:09Z,42.805,6.029,13.3075,4.60124,2470.73,2023-10-05T03:49:33Z
2023-10-05T01:50:12Z,42.805,6.029,13.3054,4.60115,2470.74,2023-10-05T03:52:36Z
2023-10-05T01:53:15Z,42.805,6.029,13.3056,4.60132,2470.754,2023-10-05T03:55:39Z
2023-10-05T01:56:18Z,42.805,6.029,13.3060,4.60135,2470.717,2023-10-05T03:58:42Z
2023-10-05T01:59:21Z,42.805,6.029,13.3063,4.60125,2470.717,2023-10-05T04:01:45Z
2023-10-05T02:02:24Z,42.805,6.029,13.3071,4.60124,2470.703,2023-10-05T04:04:48Z
2023-10-05T02:05:27Z,42.805,6.029,13.3071,4.60126,2470.74,2023-10-05T04:07:51Z
2023-10-05T02:08:30Z,42.805,6.029,13.3057,4.60119,2470.73,2023-10-05T04:10:54Z
2023-10-05T02:11:33Z,42.805,6.029,13.3060,4.60122,2470.717,2023-10-05T04:13:57Z
2023-10-05T02:14:37Z,42.805,6.029,13.3069,4.60122,2470.717,2023-10-05T04:17:00Z
2023-10-05T02:17:40Z,42.805,6.029,13.3057,4.60114,2470.73,2023-10-05T04:20:03Z
2023-10-05T02:20:43Z,42.805,6.029,13.3055,4.60121,2470.73,2023-10-05T04:23:06Z
2023-10-05T02:23:46Z,42.805,6.029,13.3071,4.60134,2470.707,2023-10-05T04:26:09Z
2023-10-05T02:26:49Z,42.805,6.029,13.3064,4.60131,2470.73,2023-10-05T04:29:13Z
2023-10-05T02:29:52Z,42.805,6.029,13.3067,4.60131,2470.717,2023-10-05T04:32:16Z
2023-10-05T02:32:55Z,42.805,6.029,13.3070,4.60129,2470.73,2023-10-05T04:35:19Z
2023-10-05T02:35:58Z,42.805,6.029,13.3076,4.60124,2470.717,2023-10-05T04:38:22Z
2023-10-05T02:39:01Z,42.805,6.029,13.3061,4.60123,2470.717,2023-10-05T04:41:25Z
2023-10-05T02:42:04Z,42.805,6.029,13.3073,4.60127,2470.717,2023-10-05T04:44:28Z
2023-10-05T02:45:07Z,42.805,6.029,13.3066,4.60132,2470.707,2023-10-05T04:47:31Z
2023-10-05T02:48:10Z,42.805,6.029,13.3074,4.60123,2470.754,2023-10-05T04:50:34Z
2023-10-05T02:51:14Z,42.805,6.029,13.3056,4.60119,2470.693,2023-10-05T04:53:37Z
2023-10-05T02:54:17Z,42.805,6.029,13.3071,4.60127,2470.707,2023-10-05T04:56:40Z
2023-10-05T02:57:20Z,42.805,6.029,13.3077,4.60125,2470.693,2023-10-05T04:59:43Z
2023-10-05T03:00:23Z,42.805,6.029,13.3070,4.60127,2470.693,2023-10-05T05:02:46Z
2023-10-05T03:03:26Z,42.805,6.029,13.3054,4.60122,2470.717,2023-10-05T05:05:49Z
2023-10-05T03:06:29Z,42.805,6.029,13.3071,4.60119,2470.693,2023-10-05T05:08:53Z
2023-10-05T03:09:32Z,42.805,6.029,13.3070,4.60135,2470.684,2023-10-05T05:11:56Z
2023-10-05T03:12:35Z,42.805,6.029,13.3048,4.60133,2470.707,2023-10-05T05:14:59Z
2023-10-05T03:15:38Z,42.805,6.029,13.3063,4.60133,2470.67,2023-10-05T05:18:02Z
2023-10-05T03:18:41Z,42.805,6.029,13.3067,4.60136,2470.707,2023-10-05T05:21:05Z
2023-10-05T03:21:44Z,42.805,6.029,13.3079,4.60140,2470.661,2023-10-05T05:24:08Z
2023-10-05T03:24:47Z,42.805,6.029,13.3063,4.60131,2470.693,2023-10-05T05:27:11Z
2023-10-05T03:27:50Z,42.805,6.029,13.3065,4.60126,2470.707,2023-10-05T05:30:14Z
2023-10-05T03:30:54Z,42.805,6.029,13.3057,4.60137,2470.707,2023-10-05T05:33:17Z
2023-10-05T03:33:57Z,42.805,6.029,13.3071,4.60113,2470.73,2023-10-05T05:36:20Z
2023-10-05T03:37:00Z,42.805,6.029,13.3049,4.60160,2470.707,2023-10-05T05:39:23Z
2023-10-05T03:40:03Z,42.805,6.029,13.3055,4.60125,2470.73,2023-10-05T05:42:26Z
2023-10-05T03:43:06Z,42.805,6.029,13.3054,4.60116,2470.693,2023-10-05T05:45:30Z
2023-10-05T03:46:09Z,42.805,6.029,13.3055,4.60137,2470.693,2023-10-05T05:48:33Z
2023-10-05T03:49:12Z,42.805,6.029,13.3061,4.60122,2470.707,2023-10-05T05:51:36Z
2023-10-05T03:52:15Z,42.805,6.029,13.3070,4.60123,2470.67,2023-10-05T05:54:39Z
2023-10-05T03:55:18Z,42.805,6.029,13.3063,4.60127,2470.693,2023-10-05T05:57:42Z
2023-10-05T03:58:21Z,42.805,6.029,13.3072,4.60131,2470.67,2023-10-05T06:00:45Z
2023-10-05T04:01:24Z,42.805,6.029,13.3066,4.60131,2470.67,2023-10-05T06:03:48Z
2023-10-05T04:04:27Z,42.805,6.029,13.3069,4.60127,2470.684,2023-10-05T06:06:51Z
2023-10-05T04:07:30Z,42.805,6.029,13.3065,4.60126,2470.661,2023-10-05T06:09:54Z
2023-10-05T04:10:34Z,42.805,6.029,13.3058,4.60117,2470.707,2023-10-05T06:12:57Z
2023-10-05T04:13:37Z,42.805,6.029,13.3058,4.60115,2470.67,2023-10-05T06:16:00Z
2023-10-05T04:16:40Z,42.805,6.029,13.3061,4.60122,2470.707,2023-10-05T06:19:03Z
2023-10-05T04:19:43Z,42.805,6.029,13.3061,4.60120,2470.684,2023-10-05T06:22:06Z
2023-10-05T04:22:46Z,42.805,6.029,13.3067,4.60129,2470.67,2023-10-05T06:25:10Z
2023-10-05T04:25:49Z,42.805,6.029,13.3067,4.60114,2470.693,2023-10-05T06:28:13Z
2023-10-05T04:28:52Z,42.805,6.029,13.3063,4.60117,2470.684,2023-10-05T06:31:16Z
2023-10-05T04:31:55Z,42.805,6.029,13.3077,4.60124,2470.684,2023-10-05T06:34:19Z
2023-10-05T04:34:58Z,42.805,6.029,13.3072,4.60125,2470.684,2023-10-05T06:37:22Z
2023-10-05T04:38:01Z,42.805,6.029,13.3078,4.60122,2470.707,2023-10-05T06:40:25Z
2023-10-05T04:41:04Z,42.805,6.029,13.3066,4.60120,2470.707,2023-10-05T06:43:28Z
2023-10-05T04:44:07Z,42.805,6.029,13.3054,4.60121,2470.67,2023-10-05T06:46:31Z
2023-10-05T04:47:10Z,42.805,6.029,13.3062,4.60114,2470.693,2023-10-05T06:49:34Z
2023-10-05T04:50:13Z,42.805,6.029,13.3059,4.60123,2470.693,2023-10-05T06:52:37Z
2023-10-05T04:53:16Z,42.805,6.029,13.3082,4.60135,2470.707,2023-10-05T06:55:40Z
2023-10-05T04:56:19Z,42.805,6.029,13.3057,4.60119,2470.67,2023-10-05T06:58:43Z
2023-10-05T04:59:23Z,42.805,6.029,13.3060,4.60123,2470.693,2023-10-05T07:01:46Z
2023-10-05T05:02:26Z,42.805,6.029,13.3063,4.60119,2470.707,2023-10-05T07:04:49Z
2023-10-05T05:05:29Z,42.805,6.029,13.3054,4.60114,2470.67,2023-10-05T07:07:52Z
2023-10-05T05:08:32Z,42.805,6.029,13.3058,4.60131,2470.646,2023-10-05T07:10:55Z
2023-10-05T05:11:35Z,42.805,6.029,13.3048,4.60113,2470.707,2023-10-05T07:13:59Z
2023-10-05T05:14:38Z,42.805,6.029,13.3056,4.60117,2470.693,2023-10-05T07:17:02Z
2023-10-05T05:17:41Z,42.805,6.029,13.3056,4.60110,2470.67,2023-10-05T07:20:05Z
2023-10-05T05:20:44Z,42.805,6.029,13.3068,4.60114,2470.684,2023-10-05T07:23:08Z
2023-10-05T05:23:47Z,42.805,6.029,13.3056,4.60116,2470.693,2023-10-05T07:26:11Z
2023-10-05T05:26:50Z,42.805,6.029,13.3056,4.60119,2470.693,2023-10-05T07:29:14Z
2023-10-05T05:29:53Z,42.805,6.029,13.3048,4.60133,2470.707,2023-10-05T07:32:17Z
2023-10-05T05:32:56Z,42.805,6.029,13.3053,4.60111,2470.693,2023-10-05T07:35:20Z
2023-10-05T05:35:59Z,42.805,6.029,13.3048,4.60113,2470.67,2023-10-05T07:38:23Z
2023-10-05T05:39:03Z,42.805,6.029,13.3048,4.60108,2470.707,2023-10-05T07:41:26Z
2023-10-05T05:42:06Z,42.805,6.029,13.3050,4.60103,2470.67,2023-10-05T07:44:29Z
2023-10-05T05:45:09Z,42.805,6.029,13.3047,4.60124,2470.73,2023-10-05T07:47:32Z
2023-10-05T05:48:12Z,42.805,6.029,13.3049,4.60120,2470.684,2023-10-05T07:50:35Z
2023-10-05T05:51:15Z,42.805,6.029,13.3050,4.60109,2470.661,2023-10-05T07:53:39Z
2023-10-05T05:54:18Z,42.805,6.029,13.3054,4.60120,2470.693,2023-10-05T07:56:42Z
2023-10-05T05:57:21Z,42.805,6.029,13.3055,4.60112,2470.693,2023-10-05T07:59:45Z
2023-10-05T06:00:24Z,42.805,6.029,13.3052,4.60114,2470.67,2023-10-05T08:02:48Z
2023-10-05T06:03:27Z,42.805,6.029,13.3054,4.60121,2470.693,2023-10-05T08:05:51Z
2023-10-05T06:06:30Z,42.805,6.029,13.3054,4.60108,2470.693,2023-10-05T08:08:54Z
2023-10-05T06:09:33Z,42.805,6.029,13.3052,4.60118,2470.693,2023-10-05T08:11:57Z
2023-10-05T06:12:36Z,42.805,6.029,13.3054,4.60107,2470.707,2023-10-05T08:15:00Z
2023-10-05T06:15:39Z,42.805,6.029,13.3051,4.60115,2470.717,2023-10-05T08:18:03Z
2023-10-05T06:18:43Z,42.805,6.029,13.3052,4.60115,2470.693,2023-10-05T08:21:06Z
2023-10-05T06:21:46Z,42.805,6.029,13.3049,4.60114,2470.693,2023-10-05T08:24:09Z
2023-10-05T06:24:49Z,42.805,6.029,13.3054,4.60114,2470.707,2023-10-05T08:27:12Z
2023-10-05T06:27:52Z,42.805,6.029,13.3058,4.60119,2470.73,2023-10-05T08:30:15Z
2023-10-05T06:30:54Z,42.805,6.029,13.3051,4.60106,2470.717,2023-10-05T08:33:17Z
2023-10-05T06:33:57Z,42.805,6.029,13.3056,4.60116,2470.693,2023-10-05T08:36:20Z
2023-10-05T06:37:00Z,42.805,6.029,13.3054,4.60114,2470.717,2023-10-05T08:39:24Z
2023-10-05T06:40:03Z,42.805,6.029,13.3062,4.60110,2470.693,2023-10-05T08:42:27Z
2023-10-05T06:43:06Z,42.805,6.029,13.3055,4.60114,2470.684,2023-10-05T08:45:30Z
2023-10-05T06:46:09Z,42.805,6.029,13.3054,4.60117,2470.693,2023-10-05T08:48:33Z
2023-10-05T06:49:12Z,42.805,6.029,13.3048,4.60109,2470.693,2023-10-05T08:51:36Z
2023-10-05T06:52:15Z,42.805,6.029,13.3053,4.60106,2470.73,2023-10-05T08:54:39Z
2023-10-05T06:55:18Z,42.805,6.029,13.3046,4.60110,2470.717,2023-10-05T08:57:42Z
2023-10-05T06:58:21Z,42.805,6.029,13.3051,4.60113,2470.717,2023-10-05T09:00:45Z
2023-10-05T07:01:24Z,42.805,6.029,13.3051,4.60110,2470.74,2023-10-05T09:03:48Z
2023-10-05T07:04:28Z,42.805,6.029,13.3049,4.60115,2470.73,2023-10-05T09:06:51Z
2023-10-05T07:07:31Z,42.805,6.029,13.3046,4.60120,2470.707,2023-10-05T09:09:54Z
2023-10-05T07:10:34Z,42.805,6.029,13.3056,4.60117,2470.74,2023-10-05T09:12:57Z
2023-10-05T07:13:37Z,42.805,6.029,13.3054,4.60108,2470.717,2023-10-05T09:16:00Z
2023-10-05T07:16:40Z,42.805,6.029,13.3046,4.60110,2470.74,2023-10-05T09:19:04Z
2023-10-05T07:19:43Z,42.805,6.029,13.3045,4.60107,2470.73,2023-10-05T09:22:07Z
2023-10-05T07:22:46Z,42.805,6.029,13.3056,4.60108,2470.717,2023-10-05T09:25:10Z
2023-10-05T07:25:49Z,42.805,6.029,13.3046,4.60102,2470.717,2023-10-05T09:28:13Z
2023-10-05T07:28:52Z,42.805,6.029,13.3047,4.60109,2470.73,2023-10-05T09:31:16Z
2023-10-05T07:31:55Z,42.805,6.029,13.3049,4.60104,2470.763,2023-10-05T09:34:19Z
2023-10-05T07:34:58Z,42.805,6.029,13.3047,4.60107,2470.717,2023-10-05T09:37:22Z
2023-10-05T07:38:01Z,42.805,6.029,13.3045,4.60113,2470.726,2023-10-05T09:40:25Z
2023-10-05T07:41:05Z,42.805,6.029,13.3048,4.60113,2470.717,2023-10-05T09:43:28Z
2023-10-05T07:44:08Z,42.805,6.029,13.3053,4.60108,2470.74,2023-10-05T09:46:31Z
2023-10-05T07:47:11Z,42.805,6.029,13.3050,4.60108,2470.74,2023-10-05T09:49:34Z
2023-10-05T07:50:14Z,42.805,6.029,13.3046,4.60104,2470.74,2023-10-05T09:52:37Z
2023-10-05T07:53:17Z,42.805,6.029,13.3048,4.60111,2470.763,2023-10-05T09:55:40Z
2023-10-05T07:56:20Z,42.805,6.029,13.3051,4.60112,2470.754,2023-10-05T09:58:44Z
2023-10-05T07:59:23Z,42.805,6.029,13.3046,4.60106,2470.777,2023-10-05T10:01:47Z
2023-10-05T08:02:26Z,42.805,6.029,13.3049,4.60115,2470.754,2023-10-05T10:04:50Z
2023-10-05T08:05:29Z,42.805,6.029,13.3052,4.60111,2470.754,2023-10-05T10:07:53Z
2023-10-05T08:08:32Z,42.805,6.029,13.3054,4.60113,2470.763,2023-10-05T10:10:56Z
2023-10-05T08:11:35Z,42.805,6.029,13.3054,4.60106,2470.787,2023-10-05T10:13:59Z
2023-10-05T08:14:38Z,42.805,6.029,13.3051,4.60109,2470.777,2023-10-05T10:17:02Z
2023-10-05T08:17:41Z,42.805,6.029,13.3055,4.60109,2470.754,2023-10-05T10:20:05Z
2023-10-05T08:20:45Z,42.805,6.029,13.3048,4.60114,2470.763,2023-10-05T10:23:08Z
2023-10-05T08:23:48Z,42.805,6.029,13.3054,4.60104,2470.787,2023-10-05T10:26:11Z
2023-10-05T08:26:51Z,42.805,6.029,13.3048,4.60113,2470.777,2023-10-05T10:29:14Z
2023-10-05T08:29:54Z,42.805,6.029,13.3044,4.60124,2470.763,2023-10-05T10:32:17Z
2023-10-05T08:32:57Z,42.805,6.029,13.3046,4.60124,2470.81,2023-10-05T10:35:21Z
2023-10-05T08:36:00Z,42.805,6.029,13.3053,4.60111,2470.763,2023-10-05T10:38:24Z
2023-10-05T08:39:03Z,42.805,6.029,13.3057,4.60112,2470.833,2023-10-05T10:41:27Z
2023-10-05T08:42:06Z,42.805,6.029,13.3049,4.60114,2470.787,2023-10-05T10:44:30Z
2023-10-05T08:45:09Z,42.805,6.029,13.3052,4.60112,2470.81,2023-10-05T10:47:33Z
2023-10-05T08:48:12Z,42.805,6.029,13.3056,4.60109,2470.787,2023-10-05T10:50:36Z
2023-10-05T08:51:15Z,42.805,6.029,13.3054,4.60104,2470.81,2023-10-05T10:53:39Z
2023-10-05T08:54:18Z,42.805,6.029,13.3044,4.60109,2470.81,2023-10-05T10:56:42Z
2023-10-05T08:57:22Z,42.805,6.029,13.3046,4.60110,2470.833,2023-10-05T10:59:45Z
2023-10-05T09:00:25Z,42.805,6.029,13.3043,4.60116,2470.8,2023-10-05T11:02:48Z
2023-10-05T09:03:28Z,42.805,6.029,13.3048,4.60106,2470.8,2023-10-05T11:05:51Z
2023-10-05T09:06:31Z,42.805,6.029,13.3047,4.60109,2470.81,2023-10-05T11:08:54Z
2023-10-05T09:09:34Z,42.805,6.029,13.3048,4.60112,2470.824,2023-10-05T11:11:58Z
2023-10-05T09:12:37Z,42.805,6.029,13.3055,4.60114,2470.833,2023-10-05T11:15:01Z
2023-10-05T09:15:40Z,42.805,6.029,13.3051,4.60107,2470.833,2023-10-05T11:18:04Z
2023-10-05T09:18:43Z,42.805,6.029,13.3048,4.60108,2470.824,2023-10-05T11:21:07Z
2023-10-05T09:21:46Z,42.805,6.029,13.3044,4.60110,2470.81,2023-10-05T11:24:10Z
2023-10-05T09:24:49Z,42.805,6.029,13.3053,4.60106,2470.81,2023-10-05T11:27:13Z
2023-10-05T09:27:52Z,42.805,6.029,13.3041,4.60110,2470.787,2023-10-05T11:30:16Z
2023-10-05T09:30:55Z,42.805,6.029,13.3048,4.60115,2470.8,2023-10-05T11:33:19Z
2023-10-05T09:33:59Z,42.805,6.029,13.3046,4.60112,2470.824,2023-10-05T11:36:22Z
2023-10-05T09:37:02Z,42.805,6.029,13.3052,4.60114,2470.847,2023-10-05T11:39:25Z
2023-10-05T09:40:05Z,42.805,6.029,13.3055,4.60112,2470.824,2023-10-05T11:42:28Z
2023-10-05T09:43:08Z,42.805,6.029,13.3052,4.60115,2470.81,2023-10-05T11:45:31Z
2023-10-05T09:46:11Z,42.805,6.029,13.3048,4.60115,2470.833,2023-10-05T11:48:35Z
2023-10-05T09:49:14Z,42.805,6.029,13.3050,4.60116,2470.847,2023-10-05T11:51:38Z
2023-10-05T09:52:17Z,42.805,6.029,13.3055,4.60112,2470.787,2023-10-05T11:54:41Z
2023-10-05T09:55:20Z,42.805,6.029,13.3060,4.60115,2470.833,2023-10-05T11:57:44Z
2023-10-05T09:58:23Z,42.805,6.029,13.3058,4.60120,2470.847,2023-10-05T12:00:47Z
2023-10-05T10:01:26Z,42.805,6.029,13.3056,4.60114,2470.833,2023-10-05T12:03:50Z
2023-10-05T10:04:29Z,42.805,6.029,13.3056,4.60116,2470.833,2023-10-05T12:06:53Z
2023-10-05T10:07:32Z,42.805,6.029,13.3063,4.60110,2470.833,2023-10-05T12:09:56Z
2023-10-05T10:10:35Z,42.805,6.029,13.3052,4.60116,2470.81,2023-10-05T12:12:59Z
2023-10-05T10:13:39Z,42.805,6.029,13.3050,4.60117,2470.833,2023-10-05T12:16:02Z
2023-10-05T10:16:42Z,42.805,6.029,13.3063,4.60117,2470.833,2023-10-05T12:19:05Z
2023-10-05T10:19:45Z,42.805,6.029,13.3052,4.60114,2470.81,2023-10-05T12:22:08Z
2023-10-05T10:22:48Z,42.805,6.029,13.3066,4.60119,2470.81,2023-10-05T12:25:11Z
2023-10-05T10:25:51Z,42.805,6.029,13.3059,4.60117,2470.8,2023-10-05T12:28:15Z
2023-10-05T10:28:54Z,42.805,6.029,13.3054,4.60119,2470.857,2023-10-05T12:31:18Z
2023-10-05T10:31:57Z,42.805,6.029,13.3057,4.60114,2470.871,2023-10-05T12:34:21Z
2023-10-05T10:35:00Z,42.805,6.029,13.3058,4.60122,2470.81,2023-10-05T12:37:24Z
2023-10-05T10:38:03Z,42.805,6.029,13.3063,4.60119,2470.857,2023-10-05T12:40:27Z
2023-10-05T10:41:06Z,42.805,6.029,13.3061,4.60122,2470.833,2023-10-05T12:43:30Z
2023-10-05T10:44:09Z,42.805,6.029,13.3061,4.60117,2470.847,2023-10-05T12:46:33Z
2023-10-05T10:47:12Z,42.805,6.029,13.3059,4.60122,2470.833,2023-10-05T12:49:36Z
2023-10-05T10:50:16Z,42.805,6.029,13.3059,4.60129,2470.833,2023-10-05T12:52:39Z
2023-10-05T10:53:19Z,42.805,6.029,13.3072,4.60123,2470.833,2023-10-05T12:55:42Z
2023-10-05T10:56:22Z,42.805,6.029,13.3068,4.60125,2470.824,2023-10-05T12:58:45Z
2023-10-05T10:59:25Z,42.805,6.029,13.3069,4.60115,2470.857,2023-10-05T13:01:49Z
2023-10-05T11:02:28Z,42.805,6.029,13.3058,4.60116,2470.81,2023-10-05T13:04:52Z
2023-10-05T11:05:31Z,42.805,6.029,13.3064,4.60116,2470.871,2023-10-05T13:07:55Z
2023-10-05T11:08:34Z,42.805,6.029,13.3058,4.60119,2470.857,2023-10-05T13:10:58Z
2023-10-05T11:11:37Z,42.805,6.029,13.3059,4.60113,2470.824,2023-10-05T13:14:01Z
2023-10-05T11:14:40Z,42.805,6.029,13.3069,4.60120,2470.857,2023-10-05T13:17:04Z
2023-10-05T11:17:43Z,42.805,6.029,13.3054,4.60113,2470.847,2023-10-05T13:20:07Z
2023-10-05T11:20:46Z,42.805,6.029,13.3063,4.60120,2470.824,2023-10-05T13:23:10Z
2023-10-05T11:23:49Z,42.805,6.029,13.3060,4.60129,2470.833,2023-10-05T13:26:13Z
2023-10-05T11:26:53Z,42.805,6.029,13.3069,4.60125,2470.847,2023-10-05T13:29:16Z
2023-10-05T11:29:56Z,42.805,6.029,13.3067,4.60122,2470.847,2023-10-05T13:32:19Z
2023-10-05T11:32:59Z,42.805,6.029,13.3068,4.60131,2470.857,2023-10-05T13:35:22Z
2023-10-05T11:36:02Z,42.805,6.029,13.3071,4.60126,2470.857,2023-10-05T13:38:25Z
2023-10-05T11:39:05Z,42.805,6.029,13.3073,4.60133,2470.847,2023-10-05T13:41:29Z
2023-10-05T11:42:08Z,42.805,6.029,13.3058,4.60119,2470.833,2023-10-05T13:44:32Z
2023-10-05T11:45:11Z,42.805,6.029,13.3056,4.60117,2470.847,2023-10-05T13:47:35Z
2023-10-05T11:48:14Z,42.805,6.029,13.3072,4.60122,2470.824,2023-10-05T13:50:38Z
2023-10-05T11:51:17Z,42.805,6.029,13.3076,4.60132,2470.847,2023-10-05T13:53:41Z
2023-10-05T11:54:20Z,42.805,6.029,13.3063,4.60114,2470.8,2023-10-05T13:56:44Z
2023-10-05T11:57:23Z,42.805,6.029,13.3060,4.60122,2470.847,2023-10-05T13:59:47Z
2023-10-05T12:00:26Z,42.805,6.029,13.3052,4.60132,2470.833,2023-10-05T14:02:50Z
2023-10-05T12:03:30Z,42.805,6.029,13.3051,4.60121,2470.847,2023-10-05T14:05:53Z
2023-10-05T12:06:33Z,42.805,6.029,13.3066,4.60127,2470.833,2023-10-05T14:08:56Z
2023-10-05T12:09:36Z,42.805,6.029,13.3070,4.60125,2470.857,2023-10-05T14:11:59Z
2023-10-05T12:12:39Z,42.805,6.029,13.3070,4.60132,2470.824,2023-10-05T14:15:02Z
2023-10-05T12:15:42Z,42.805,6.029,13.3076,4.60125,2470.871,2023-10-05T14:18:06Z
2023-10-05T12:18:45Z,42.805,6.029,13.3061,4.60127,2470.833,2023-10-05T14:21:09Z
2023-10-05T12:21:48Z,42.805,6.029,13.3063,4.60135,2470.824,2023-10-05T14:24:12Z
2023-10-05T12:24:51Z,42.805,6.029,13.3074,4.60131,2470.847,2023-10-05T14:27:15Z
2023-10-05T12:27:54Z,42.805,6.029,13.3067,4.60126,2470.833,2023-10-05T14:30:18Z
2023-10-05T12:30:57Z,42.805,6.029,13.3062,4.60126,2470.847,2023-10-05T14:33:21Z
2023-10-05T12:34:00Z,42.805,6.029,13.3067,4.60125,2470.824,2023-10-05T14:36:24Z
2023-10-05T12:37:03Z,42.805,6.029,13.3070,4.60127,2470.847,2023-10-05T14:39:27Z
2023-10-05T12:40:07Z,42.805,6.029,13.3067,4.60125,2470.824,2023-10-05T14:42:30Z
2023-10-05T12:43:10Z,42.805,6.029,13.3067,4.60132,2470.871,2023-10-05T14:45:33Z
2023-10-05T12:46:13Z,42.805,6.029,13.3073,4.60132,2470.833,2023-10-05T14:48:36Z
2023-10-05T12:49:16Z,42.805,6.029,13.3069,4.60135,2470.833,2023-10-05T14:51:39Z
2023-10-05T12:52:19Z,42.805,6.029,13.3082,4.60136,2470.871,2023-10-05T14:54:43Z
2023-10-05T12:55:22Z,42.805,6.029,13.3074,4.60140,2470.824,2023-10-05T14:57:46Z
2023-10-05T12:58:25Z,42.805,6.029,13.3075,4.60140,2470.833,2023-10-05T15:00:49Z
2023-10-05T13:01:28Z,42.805,6.029,13.3069,4.60135,2470.847,2023-10-05T15:03:52Z
2023-10-05T13:04:31Z,42.805,6.029,13.3080,4.60127,2470.81,2023-10-05T15:06:55Z
2023-10-05T13:07:34Z,42.805,6.029,13.3069,4.60131,2470.833,2023-10-05T15:09:58Z
2023-10-05T13:10:37Z,42.805,6.029,13.3063,4.60132,2470.833,2023-10-05T15:13:01Z
2023-10-05T13:13:40Z,42.805,6.029,13.3060,4.60139,2470.81,2023-10-05T15:16:04Z
2023-10-05T13:16:43Z,42.805,6.029,13.3069,4.60127,2470.847,2023-10-05T15:19:07Z
2023-10-05T13:19:47Z,42.805,6.029,13.3093,4.60133,2470.847,2023-10-05T15:22:10Z
2023-10-05T13:22:50Z,42.805,6.029,13.3077,4.60150,2470.824,2023-10-05T15:25:13Z
2023-10-05T13:25:53Z,42.805,6.029,13.3070,4.60130,2470.81,2023-10-05T15:28:16Z
2023-10-05T13:28:56Z,42.805,6.029,13.3069,4.60137,2470.833,2023-10-05T15:31:20Z
2023-10-05T13:31:59Z,42.805,6.029,13.3070,4.60136,2470.833,2023-10-05T15:34:23Z
2023-10-05T13:35:02Z,42.805,6.029,13.3073,4.60148,2470.824,2023-10-05T15:37:26Z
2023-10-05T13:38:05Z,42.805,6.029,13.3069,4.60150,2470.824,2023-10-05T15:40:29Z
2023-10-05T13:41:08Z,42.805,6.029,13.3076,4.60140,2470.833,2023-10-05T15:43:32Z
2023-10-05T13:44:11Z,42.805,6.029,13.3074,4.60142,2470.824,2023-10-05T15:46:35Z
2023-10-05T13:47:14Z,42.805,6.029,13.3067,4.60143,2470.787,2023-10-05T15:49:38Z
2023-10-05T13:50:17Z,42.805,6.029,13.3065,4.60128,2470.847,2023-10-05T15:52:41Z
2023-10-05T13:53:21Z,42.805,6.029,13.3068,4.60132,2470.824,2023-10-05T15:55:44Z
2023-10-05T13:56:24Z,42.805,6.029,13.3068,4.60139,2470.833,2023-10-05T15:58:47Z
2023-10-05T13:59:27Z,42.805,6.029,13.3072,4.60135,2470.81,2023-10-05T16:01:50Z
2023-10-05T14:02:30Z,42.805,6.029,13.3055,4.60140,2470.824,2023-10-05T16:04:53Z
2023-10-05T14:05:33Z,42.805,6.029,13.3072,4.60121,2470.81,2023-10-05T16:07:57Z
2023-10-05T14:08:36Z,42.805,6.029,13.3055,4.60114,2470.847,2023-10-05T16:11:00Z
2023-10-05T14:11:39Z,42.805,6.029,13.3053,4.60117,2470.847,2023-10-05T16:14:03Z
2023-10-05T14:14:42Z,42.805,6.029,13.3067,4.60131,2470.787,2023-10-05T16:17:06Z
2023-10-05T14:17:45Z,42.805,6.029,13.3082,4.60132,2470.787,2023-10-05T16:20:09Z
2023-10-05T14:20:48Z,42.805,6.029,13.3076,4.60122,2470.777,2023-10-05T16:23:12Z
2023-10-05T14:23:51Z,42.805,6.029,13.3089,4.60121,2470.8,2023-10-05T16:26:15Z
2023-10-05T14:26:54Z,42.805,6.029,13.3070,4.60128,2470.833,2023-10-05T16:29:18Z
2023-10-05T14:29:58Z,42.805,6.029,13.3063,4.60121,2470.763,2023-10-05T16:32:21Z
2023-10-05T14:32:59Z,42.805,6.029,13.3067,4.60126,2470.824,2023-10-05T16:35:23Z
2023-10-05T14:36:03Z,42.805,6.029,13.3061,4.60134,2470.787,2023-10-05T16:38:26Z
2023-10-05T14:39:06Z,42.805,6.029,13.3046,4.60137,2470.824,2023-10-05T16:41:29Z
2023-10-05T14:42:09Z,42.805,6.029,13.3061,4.60128,2470.8,2023-10-05T16:44:32Z
2023-10-05T14:45:12Z,42.805,6.029,13.3070,4.60140,2470.833,2023-10-05T16:47:36Z
2023-10-05T14:48:15Z,42.805,6.029,13.3058,4.60129,2470.81,2023-10-05T16:50:39Z
2023-10-05T14:51:18Z,42.805,6.029,13.3052,4.60129,2470.8,2023-10-05T16:53:42Z
2023-10-05T14:54:21Z,42.805,6.029,13.3056,4.60132,2470.777,2023-10-05T16:56:45Z
2023-10-05T14:57:24Z,42.805,6.029,13.3053,4.60147,2470.787,2023-10-05T16:59:48Z
2023-10-05T15:00:27Z,42.805,6.029,13.3073,4.60115,2470.787,2023-10-05T17:02:51Z